Location: ????????
(55.5667°N, 37.5833°E)
Time: 21:34:53
(UTC+00:00)

Cosmos 1535 Rocket - Pass Details

Date: 14 April 2026
Orbit: 949 x 1003 km, 83.0° (Epoch: 13 May)

Event Time Altitude Azimuth Distance (km) Brightness Sun altitude
Exits shadow 20:12:13 38° 200° (SSW) 1,417 5.0 -22.8°
Maximum altitude 20:14:45 80° 282° (WNW) 972 4.4 -22.9°
Drops below altitude 10° 20:20:56 10° 10° (N) 2,698 7.6 -23.2°
Sets 20:23:27 0° 12° (NNE) 3,654 8.5 -23.3°
